Location: Newark
(21.1700°N, 79.6500°E)
Time: 00:09:56
(UTC+00:00)

N. Korean satellite - Pass Details

Date: 11 December 2019
Orbit: 454 x 507 km, 97.2° (Epoch: 23 January)

Event Time Altitude Azimuth Distance (km) Brightness Sun altitude
Rises 23:58:08 0° 22° (NNE) 2,500 10.2 -16.0°
Reaches altitude 10° 00:00:18 10° 30° (NNE) 1,613 9.3 -15.5°
Maximum altitude 00:03:31 36° 99° (E) 740 8.1 -14.8°
Drops below altitude 10° 00:06:41 10° 168° (SSE) 1,589 9.6 -14.1°
Sets 00:08:48 0° 176° (S) 2,456 10.5 -13.7°
